Location: Bu�n Treun
(12.1333°N, 108.3167°E)
Time: 23:31:42
(UTC+00:00)

Milstar 3 Cent rocket - Pass Details

Date: 13 July 2020
Orbit: 706 x 5147 km, 28.3° (Epoch: 03 August)

Event Time Altitude Azimuth Distance (km) Brightness Sun altitude
Rises 12:24:05 0° 284° (WNW) 3,180 6.8 -16.0°
Reaches altitude 10° 12:26:36 10° 274° (W) 2,168 5.4 -16.5°
Maximum altitude 12:30:49 35° 207° (SSW) 1,174 2.9 -17.4°
Enters shadow 12:33:22 22° 158° (SSE) 1,694 3.3 -18.0°
